TimeCDT,TemperatureF,Dew PointF,Humidity,Sea Level PressureIn,VisibilityMPH,Wind Direction,Wind SpeedMPH,Gust SpeedMPH,PrecipitationIn,Events,Conditions,WindDirDegrees,DateUTC
12:16 AM,32.0,32.0,100,29.99,4.0,Calm,Calm,-,N/A,,Clear,0,2013-03-15 05:16:00
12:37 AM,32.0,32.0,100,29.99,5.0,Calm,Calm,-,N/A,,Clear,0,2013-03-15 05:37:00
12:57 AM,32.0,30.2,93,29.97,4.0,Calm,Calm,-,N/A,,Clear,0,2013-03-15 05:57:00
1:16 AM,32.0,32.0,100,29.97,4.0,Calm,Calm,-,N/A,,Clear,0,2013-03-15 06:16:00
1:37 AM,32.0,32.0,100,29.96,4.0,Calm,Calm,-,N/A,,Mostly Cloudy,0,2013-03-15 06:37:00
2:17 AM,33.8,32.0,93,29.96,4.0,Calm,Calm,-,N/A,,Overcast,0,2013-03-15 07:17:00
2:37 AM,33.8,32.0,93,29.97,4.0,Calm,Calm,-,N/A,,Overcast,0,2013-03-15 07:37:00
2:57 AM,33.8,32.0,93,29.97,4.0,NE,4.6,-,N/A,,Mostly Cloudy,40,2013-03-15 07:57:00
3:17 AM,33.8,32.0,93,29.96,3.0,Calm,Calm,-,N/A,,Overcast,0,2013-03-15 08:17:00
3:37 AM,33.8,32.0,93,29.96,4.0,NNE,9.2,-,N/A,,Overcast,30,2013-03-15 08:37:00
4:17 AM,35.6,33.8,93,29.95,5.0,NE,13.8,-,N/A,,Overcast,40,2013-03-15 09:17:00
4:37 AM,35.6,32.0,87,29.92,10.0,NE,13.8,-,N/A,,Mostly Cloudy,50,2013-03-15 09:37:00
4:56 AM,35.6,32.0,87,29.92,10.0,ENE,11.5,-,N/A,,Mostly Cloudy,60,2013-03-15 09:56:00
5:17 AM,33.8,32.0,93,29.90,10.0,ENE,10.4,-,N/A,,Overcast,60,2013-03-15 10:17:00
5:37 AM,33.8,32.0,93,29.88,10.0,ENE,9.2,-,N/A,,Overcast,70,2013-03-15 10:37:00
5:56 AM,33.8,32.0,93,29.88,7.0,ENE,8.1,-,N/A,,Overcast,70,2013-03-15 10:56:00
6:17 AM,33.8,32.0,93,29.86,7.0,ENE,9.2,-,N/A,,Mostly Cloudy,70,2013-03-15 11:17:00
6:37 AM,33.8,32.0,93,29.86,7.0,East,6.9,-,N/A,,Mostly Cloudy,80,2013-03-15 11:37:00
6:56 AM,33.8,32.0,93,29.86,7.0,East,5.8,-,N/A,,Overcast,90,2013-03-15 11:56:00
7:17 AM,33.8,32.0,93,29.85,7.0,East,9.2,-,N/A,,Overcast,90,2013-03-15 12:17:00
7:37 AM,33.8,32.0,93,29.84,7.0,ENE,6.9,-,N/A,,Overcast,70,2013-03-15 12:37:00
7:57 AM,33.8,32.0,93,29.84,7.0,ENE,9.2,-,N/A,,Scattered Clouds,60,2013-03-15 12:57:00
8:17 AM,33.8,32.0,93,29.85,7.0,NE,9.2,-,N/A,,Mostly Cloudy,50,2013-03-15 13:17:00
8:37 AM,33.8,30.2,87,29.86,7.0,ENE,8.1,-,N/A,,Mostly Cloudy,60,2013-03-15 13:37:00
8:57 AM,33.8,30.2,87,29.86,7.0,NE,11.5,16.1,N/A,,Scattered Clouds,50,2013-03-15 13:57:00
9:17 AM,33.8,30.2,87,29.86,7.0,ENE,11.5,18.4,N/A,,Clear,60,2013-03-15 14:17:00
9:37 AM,33.8,30.2,87,29.85,7.0,NE,11.5,-,N/A,,Clear,50,2013-03-15 14:37:00
9:57 AM,33.8,30.2,87,29.85,7.0,ENE,12.7,-,N/A,,Clear,60,2013-03-15 14:57:00
10:17 AM,33.8,30.2,87,29.85,7.0,ENE,11.5,17.3,N/A,,Clear,60,2013-03-15 15:17:00
10:37 AM,35.6,32.0,87,29.85,7.0,ENE,10.4,-,N/A,,Clear,60,2013-03-15 15:37:00
10:57 AM,35.6,32.0,87,29.83,7.0,ENE,13.8,17.3,N/A,,Clear,60,2013-03-15 15:57:00
11:17 AM,35.6,32.0,87,29.83,7.0,ENE,15.0,-,N/A,,Clear,60,2013-03-15 16:17:00
11:36 AM,35.6,32.0,87,29.85,5.0,NE,17.3,-,N/A,,Haze,40,2013-03-15 16:36:00
11:57 AM,35.6,32.0,87,29.84,5.0,NE,15.0,-,N/A,,Mostly Cloudy,50,2013-03-15 16:57:00
12:16 PM,33.8,30.2,87,29.85,4.0,NE,13.8,-,N/A,,Overcast,50,2013-03-15 17:16:00
12:37 PM,33.8,30.2,87,29.83,4.0,ENE,11.5,21.9,N/A,,Overcast,60,2013-03-15 17:37:00
12:57 PM,33.8,32.0,93,29.83,3.0,ENE,11.5,-,N/A,,Overcast,60,2013-03-15 17:57:00
1:17 PM,33.8,32.0,93,29.83,3.0,NE,13.8,-,N/A,,Overcast,50,2013-03-15 18:17:00
1:37 PM,35.6,32.0,87,29.84,4.0,ENE,11.5,17.3,N/A,,Overcast,60,2013-03-15 18:37:00
1:57 PM,35.6,32.0,87,29.83,4.0,ENE,10.4,-,N/A,,Overcast,70,2013-03-15 18:57:00
2:17 PM,35.6,32.0,87,29.83,4.0,East,10.4,-,N/A,,Haze,90,2013-03-15 19:17:00
2:37 PM,35.6,32.0,87,29.83,4.0,ENE,8.1,-,N/A,,Overcast,60,2013-03-15 19:37:00
2:57 PM,37.4,32.0,81,29.82,4.0,East,9.2,-,N/A,,Haze,80,2013-03-15 19:57:00
3:17 PM,37.4,32.0,81,29.82,4.0,NE,8.1,-,N/A,,Haze,50,2013-03-15 20:17:00
3:36 PM,37.4,32.0,81,29.81,4.0,ENE,8.1,-,N/A,,Haze,60,2013-03-15 20:36:00
3:57 PM,37.4,32.0,81,29.79,4.0,ENE,9.2,-,N/A,,Haze,70,2013-03-15 20:57:00
4:17 PM,35.6,32.0,87,29.78,4.0,ENE,8.1,-,N/A,,Overcast,70,2013-03-15 21:17:00
4:36 PM,35.6,32.0,87,29.78,4.0,ENE,9.2,-,N/A,,Overcast,70,2013-03-15 21:36:00
4:57 PM,35.6,32.0,87,29.78,3.0,NE,6.9,-,N/A,,Overcast,50,2013-03-15 21:57:00
5:16 PM,35.6,32.0,87,29.78,3.0,ENE,4.6,-,N/A,,Overcast,60,2013-03-15 22:16:00
5:37 PM,35.6,32.0,87,29.78,2.5,NE,5.8,-,N/A,,Overcast,40,2013-03-15 22:37:00
6:16 PM,35.6,32.0,87,29.78,2.5,NE,5.8,-,N/A,,Overcast,50,2013-03-15 23:16:00
6:37 PM,35.6,32.0,87,29.81,2.5,NNW,9.2,-,N/A,,Overcast,340,2013-03-15 23:37:00
6:57 PM,35.6,32.0,87,29.82,2.5,NNW,8.1,-,N/A,,Overcast,330,2013-03-15 23:57:00
7:17 PM,35.6,32.0,87,29.83,4.0,NNW,6.9,-,N/A,,Overcast,340,2013-03-16 00:17:00
7:37 PM,33.8,32.0,93,29.83,4.0,North,5.8,-,N/A,,Overcast,350,2013-03-16 00:37:00
7:56 PM,33.8,32.0,93,29.83,4.0,NNW,3.5,-,N/A,,Overcast,330,2013-03-16 00:56:00
8:17 PM,33.8,32.0,93,29.82,5.0,NW,4.6,-,N/A,,Overcast,320,2013-03-16 01:17:00
8:37 PM,33.8,32.0,93,29.85,4.0,NNW,6.9,-,N/A,,Overcast,340,2013-03-16 01:37:00
8:57 PM,33.8,32.0,93,29.85,2.0,NNW,5.8,-,N/A,,Overcast,340,2013-03-16 01:57:00
9:17 PM,33.8,32.0,93,29.86,3.0,NNW,8.1,-,N/A,,Overcast,330,2013-03-16 02:17:00
9:37 PM,33.8,32.0,93,29.87,1.5,North,9.2,-,N/A,,Overcast,350,2013-03-16 02:37:00
9:57 PM,33.8,32.0,93,29.87,1.2,North,10.4,-,N/A,,Overcast,360,2013-03-16 02:57:00
10:17 PM,32.0,32.0,100,29.88,1.5,North,8.1,-,N/A,,Overcast,350,2013-03-16 03:17:00
10:37 PM,32.0,32.0,100,29.89,3.0,NNW,6.9,-,N/A,,Overcast,340,2013-03-16 03:37:00
10:57 PM,32.0,32.0,100,29.89,2.5,NNW,9.2,-,N/A,,Overcast,340,2013-03-16 03:57:00
11:17 PM,32.0,32.0,100,29.89,4.0,North,13.8,18.4,N/A,,Overcast,350,2013-03-16 04:17:00
11:36 PM,32.0,32.0,100,29.88,4.0,North,12.7,-,N/A,,Overcast,350,2013-03-16 04:36:00
11:57 PM,32.0,30.2,93,29.89,5.0,NNW,12.7,-,N/A,,Overcast,340,2013-03-16 04:57:00